Tracking 29892 objects as of 21-Nov-2024
HD Live streaming from Space Station
objects crossing your sky now

DELTA 1 DEB

Track DELTA 1 DEB now!
10-day predictions


NORAD ID: 7195
Int'l Code: 1973-086FD
Perigee: 845.0 km
Apogee: 1,301.1 km
Inclination: 103.2 °
Period: 106.5 minutes
Semi major axis: 7444 km
RCS: 0.0204 m2 (small)
Launch date: November 6, 1973
Source: United States (US)
Launch site: AIR FORCE WESTERN TEST RANGE (AFWTR)

Note: This is SATELLITE DEBRIS
Your satellite tracking list
Your tracking list is empty




NASA's NSSDC Master Catalog

Two Line Element Set (TLE):
1 07195U 73086FD  24324.89534774  .00003586  00000-0  41623-2 0  9998
2 07195 103.1775  91.6743 0306338 150.5852 211.2902 13.51725902476893
Source of the keplerian elements: AFSPC